AirNav   Everest Fuels
 
 866 users online  

L88 New Cuyama Airport
New Cuyama, California, USA

GOING TO NEW CUYAMA?


FAA INFORMATION EFFECTIVE 09 SEPTEMBER 2021

Location

FAA Identifier: L88
Lat/Long: 34-56-23.8000N 119-41-08.1000W
34-56.396667N 119-41.135000W
34.9399444,-119.6855833
(estimated)
Elevation: 2203 ft. / 671 m (estimated)
Variation: 14E (1985)
Time zone: UTC -7 (UTC -8 during Standard Time)
Zip code: 93254

Airport Operations

Airport use: CLOSED INDEFINITELY
Activation date: 09/1950
Control tower: no
ARTCC: LOS ANGELES CENTER
FSS: RANCHO MURIETA FLIGHT SERVICE STATION
NOTAMs facility: RIU (NOTAM-D service available)
Attendance: UNATNDD
Wind indicator: yes
Segmented circle: yes

Airport Communications

CTAF: 122.9

Nearby radio navigation aids

VOR radial/distance  VOR name  Freq  Var
FLWr120/12.8FELLOWS VOR/DME117.5016E
RZSr355/26.2SAN MARCUS VORTAC114.9014E
GVOr023/31.6GAVIOTA VORTAC113.8016E

Airport Services

Parking: tiedowns
Airframe service: NONE
Powerplant service: NONE
Bottled oxygen: NONE
Bulk oxygen: NONE

Runway Information

Runway 10/28

Dimensions: 3940 x 60 ft. / 1201 x 18 m
Surface: asphalt, in poor condition
RUNWAY 10  RUNWAY 28
Latitude: 34-56.541333N34-56.251667N
Longitude: 119-41.488833W119-40.782667W
Traffic pattern: rightleft
Markings: basic, in fair conditionbasic, in fair condition
Runway end identifier lights: nono
Obstructions: 20 ft. tree, 250 ft. from runway, 2:1 slope to clear4 ft. fence, 200 ft. from runway, 80 ft. left of centerline

Airport Ownership and Management from official FAA records

Ownership: Privately-owned
Owner: BLUE SKY SUSTAINABLE LIVING CENTER
P.O. BOX 271
NEW CUYAMA, CA 93254
Phone 661-413-3005
Manager: EMILY JOHNSON
PO BOX 271
NEW CUYAMA, CA 93254
Phone 805-770-0926

Airport Operational Statistics

Aircraft operations: avg 42/month *
100% transient general aviation
* for 12-month period ending 17 June 2019

Additional Remarks

ACFT PRKG 125 FT N OF RWY CNTRLN AT RWY 10 APCH END.
RWY 10 +25 FT PWR POLES & PLINES RUN PARTIALLY UNDERGROUND 270 FT BYD RWY END, 164 FT R OF CNTRLN.
FOR CD CTC LOS ANGELES ARTCC AT 661-575-2079.
(ARPT STATUS) ARPT CLSD INDEFLY.

Instrument Procedures

There are no published instrument procedures at L88.

Some nearby airports with instrument procedures:

KIZA - Santa Ynez Airport (28 nm SW)
KSBA - Santa Barbara Municipal Airport (32 nm S)
KSMX - Santa Maria Public Airport/Capt G Allan Hancock Field (38 nm W)
L45 - Bakersfield Municipal Airport (41 nm NE)
KMIT - Shafter Airport-Minter Field (42 nm NE)
 
Loc | Ops | Rwys | IFR | FBO | Links
Com | Nav | Svcs | Stats | Notes
Area around L88 (New Cuyama Airport)
 
Road maps at: MapQuest Bing Google
 
Aerial photo
WARNING: Photo may not be current or correct
Aerial photo of L88 (New Cuyama Airport)
Photo taken 03-Mar-2016
looking west.

Do you have a better or more recent aerial photo of New Cuyama Airport that you would like to share? If so, please send us your photo.

 
Sectional chart

 
Airport distance calculator
Flying to New Cuyama Airport? Find the distance to fly.

From to L88

Sunrise and sunset
Times for 24-Sep-2021
 Local
(UTC-7)
 Zulu
(UTC)
Morning civil twilight06:2413:24
Sunrise06:4913:49
Sunset18:5201:52
Evening civil twilight19:1702:17

Current date and time
Zulu (UTC)  25-Sep-2021 01:45:41
Local (UTC-7)  24-Sep-2021 18:45:41
 
METAR
KIZA 
28nm SW 
250135Z AUTO 23004KT 10SM CLR 20/12 A2997 RMK AO2
KSBA 
31nm S 
250053Z 26004KT 6SM HZ FU SCT007 16/13 A2994 RMK AO2 SLP139 T01560128 $
KSMX 
38nm W 
250051Z 30006KT 9SM CLR 16/13 A2994 RMK AO2 SLP140 T01610128
KLPC 
42nm SW 
250056Z AUTO 26008KT 10SM CLR 16/13 A2994 RMK AO2 SLP138 T01560133
KBFL 
43nm NE 
250054Z 00000KT 4SM HZ FU CLR 29/09 A2987 RMK AO2 SLP108 T02890094
KL52 
47nm W 
250135Z AUTO 00000KT 3SM BR OVC003 15/14 A2994 RMK A01
KVBG 
47nm SW 
250058Z AUTO 33004KT 7SM BKN004 15/13 A2994 RMK AO2 BKN V SCT SLP142 T01460133 $
KSDB 
49nm E 
250053Z AUTO 17022G30KT 10SM CLR 23/07 A3012 RMK AO2 PK WND 16030/0045 SLP143 T02330072 $
KSBP 
50nm W 
250056Z 31006KT 10SM CLR 19/13 A2993 RMK AO2 SLP133 T01890133 $
TAF
KSBA 
31nm S 
242220Z 2422/2518 25005KT 6SM BR BKN008 FM250300 VRB03KT P6SM BKN007 FM250500 VRB03KT 4SM BR OVC006 FM250800 VRB03KT 3SM BR BKN004 FM251200 VRB03KT 1 1/2SM BR OVC003 FM251600 VRB03KT 3SM BR OVC005
KSMX 
38nm W 
241740Z 2418/2518 VRB03KT 3SM BR OVC004 FM241900 32006KT P6SM SCT008 BKN100 FM242000 31010KT P6SM BKN100 FM250300 VRB03KT P6SM BKN006 FM250600 VRB03KT 4SM BR OVC004 FM251200 VRB03KT 1/2SM FG VV002 FM251600 VRB03KT 2SM BR OVC004
NOTAMs
Click for the latest NOTAMs
NOTAMs are issued by the DoD/FAA and will open in a separate window not controlled by AirNav.

 

 
 

Would you like to see your business listed on this page?

 If your business provides an interesting product or service to pilots, flight crews, aircraft, or users of the New Cuyama Airport, you should consider listing it here.  To start the listing process, click on the button below
 
Add a business
 

Other Pages about New Cuyama Airport

Update a link
 
Copyright © AirNav, LLC. All rights reserved. Privacy Policy  Contact